EW5804 Weather Reports


Display with metric or nautical units.
time (UTC)temp
F
wind
direction
speed
MPH
gust
MPH
rain 1hr
in
rain 24hr
in
rain mn
in
humidity
%
barometer
mb
20260503000930 53 310 0.0 0.0 0.00 0.02 0.02 77 1012.1
20260503000917 54 310 0.0 0.0 0.00 0.02 0.02 76 1012.0
20260502235920 54 310 0.0 0.0 0.00 0.02 0.02 75 1011.9
20260502235413 54 310 0.0 0.0 0.00 0.02 0.02 74 1011.9
20260502234907 55 310 0.0 0.0 0.00 0.02 0.02 74 1011.9
20260502234400 55 310 0.0 0.0 0.00 0.02 0.02 73 1011.9
20260502233855 55 310 0.0 0.0 0.00 0.02 0.02 73 1011.8
20260502233350 56 310 0.0 0.0 0.00 0.02 0.02 72 1011.8
20260502232843 56 313 0.0 0.0 0.00 0.02 0.02 72 1011.7
20260502232338 56 312 0.0 2.0 0.00 0.02 0.02 71 1011.7
20260502231831 56 312 0.0 2.0 0.00 0.02 0.02 69 1011.7
20260502231545 56 313 0.0 3.0 0.00 0.02 0.02 68 1011.7
20260502230818 56 313 0.0 3.0 0.00 0.02 0.02 68 1011.5
20260502230313 56 312 1.0 3.0 0.00 0.02 0.02 67 1011.6
20260502225806 57 274 2.0 4.0 0.00 0.02 0.02 65 1011.6
20260502225301 57 273 1.0 4.0 0.00 0.02 0.02 66 1011.6
20260502224755 57 291 1.0 3.0 0.00 0.02 0.02 65 1011.7
20260502224249 57 299 1.0 3.0 0.00 0.02 0.02 65 1011.6
20260502224229 58 287 1.0 3.0 0.00 0.02 0.02 66 1011.7
20260502223237 58 287 1.0 3.0 0.00 0.02 0.02 66 1011.8
20260502222730 58 286 0.0 3.0 0.00 0.02 0.02 65 1011.7
20260502222224 58 288 0.0 2.0 0.00 0.02 0.02 65 1011.7
20260502221719 58 288 0.0 2.0 0.00 0.02 0.02 63 1011.6
20260502221434 58 288 1.0 3.0 0.00 0.02 0.02 63 1011.5
20260502220930 58 288 0.0 3.0 0.00 0.02 0.02 62 1011.6
20260502220201 58 286 0.0 2.0 0.00 0.02 0.02 64 1011.6
20260502215655 58 286 1.0 4.0 0.00 0.02 0.02 64 1011.6
20260502215149 58 286 1.0 4.0 0.00 0.02 0.02 61 1011.7
20260502214643 58 350 1.0 2.0 0.00 0.02 0.02 61 1011.6
20260502214136 58 350 2.0 4.0 0.00 0.02 0.02 60 1011.7
20260502213630 58 350 2.0 6.0 0.00 0.02 0.02 58 1011.5
20260502213342 58 43 1.0 6.0 0.00 0.02 0.02 58 1011.6
20260502212619 58 338 1.0 4.0 0.00 0.02 0.02 60 1011.6
20260502212112 58 280 2.0 7.0 0.00 0.02 0.02 59 1011.6
20260502212058 58 293 2.0 7.0 0.00 0.02 0.02 57 1011.6
20260502211101 58 124 3.0 7.0 0.00 0.02 0.02 58 1011.5
20260502211046 58 350 4.0 9.0 0.00 0.02 0.02 58 1011.5
20260502210329 58 34 4.0 10.0 0.00 0.02 0.02 60 1011.5
20260502205601 58 70 4.0 10.0 0.00 0.02 0.02 59 1011.5
20260502205102 58 37 3.0 9.0 0.00 0.02 0.02 59 1011.4
20260502204600 58 42 4.0 12.0 0.00 0.02 0.02 58 1011.4
20260502204102 58 78 4.0 12.0 0.00 0.02 0.02 57 1011.3
20260502203603 58 108 3.0 9.0 0.00 0.02 0.02 56 1011.3
20260502203058 58 99 2.0 7.0 0.00 0.02 0.02 57 1011.2
20260502202600 58 286 2.0 8.0 0.00 0.02 0.02 56 1011.4
20260502202058 58 307 3.0 8.0 0.00 0.02 0.02 56 1011.4
20260502201559 58 355 3.0 8.0 0.00 0.02 0.02 57 1011.5
20260502201059 59 39 3.0 7.0 0.00 0.02 0.02 57 1011.4
20260502200554 59 41 3.0 12.0 0.00 0.02 0.02 58 1011.4
20260502195554 59 229 3.0 8.0 0.00 0.02 0.02 57 1011.3
20260502195322 59 311 3.0 9.0 0.00 0.02 0.02 59 1011.4
20260502194555 59 97 3.0 9.0 0.00 0.02 0.02 60 1011.4
20260502194055 59 310 3.0 9.0 0.00 0.02 0.02 61 1011.6
20260502193816 58 14 3.0 8.0 0.00 0.02 0.02 63 1011.8
20260502193055 58 52 3.0 7.0 0.00 0.02 0.02 57 1011.9
20260502192554 59 32 3.0 7.0 0.00 0.02 0.02 55 1012.0
20260502192056 59 265 3.0 8.0 0.00 0.02 0.02 58 1012.1
20260502191555 59 345 3.0 8.0 0.00 0.02 0.02 58 1012.0
20260502191054 58 286 3.0 11.0 0.00 0.02 0.02 63 1012.0
20260502190554 58 277 4.0 11.0 0.00 0.02 0.02 62 1012.0
20260502190107 58 16 4.0 9.0 0.00 0.02 0.02 56 1012.2
20260502185555 59 52 3.0 9.0 0.00 0.02 0.02 59 1012.4
20260502185317 59 207 3.0 11.0 0.00 0.02 0.02 63 1012.3
20260502184555 58 247 3.0 11.0 0.00 0.02 0.02 64 1012.2
20260502184052 58 282 2.0 5.0 0.00 0.02 0.02 71 1011.9
20260502183546 58 302 2.0 5.0 0.00 0.02 0.02 69 1012.1
20260502183300 58 234 2.0 7.0 0.00 0.02 0.02 71 1012.0
20260502182534 57 41 2.0 7.0 0.00 0.02 0.02 70 1012.0
20260502182028 57 162 2.0 6.0 0.00 0.02 0.02 71 1012.1
20260502181522 57 74 2.0 7.0 0.00 0.02 0.02 72 1012.2
20260502181016 57 25 3.0 7.0 0.00 0.02 0.02 72 1012.5
20260502180509 56 49 3.0 6.0 0.00 0.02 0.02 73 1012.5
20260502170358 55 329 1.0 3.0 0.00 0.02 0.02 78 1013.9
20260502164334 54 28 2.0 6.0 0.00 0.02 0.02 77 1013.7
20260502163828 55 44 2.0 6.0 0.00 0.02 0.02 76 1013.7
20260502163543 55 328 2.0 8.0 0.00 0.02 0.02 76 1013.5
20260502162816 55 35 2.0 8.0 0.00 0.02 0.02 77 1013.7
20260502162310 55 345 3.0 9.0 0.00 0.02 0.02 76 1013.6
20260502161803 55 350 3.0 9.0 0.00 0.02 0.02 77 1013.7
20260502161258 55 45 3.0 5.0 0.00 0.02 0.02 78 1013.6
20260502161021 55 50 3.0 8.0 0.01 0.02 0.02 79 1013.7
20260502160246 55 5 3.0 8.0 0.01 0.02 0.02 78 1013.7
20260502152157 53 10 2.0 4.0 0.02 0.02 0.02 81 1013.8
20260502151652 53 20 2.0 4.0 0.02 0.02 0.02 82 1014.0
20260502151147 53 24 2.0 4.0 0.01 0.01 0.01 81 1014.2
20260502150640 53 336 1.0 6.0 0.01 0.01 0.01 80 1014.3
20260502150135 54 319 1.0 6.0 0.01 0.01 0.01 79 1014.2
20260502130416 56 51 4.0 9.0 0.00 0.01 0.00 76 1012.6
20260502123339 53 33 2.0 5.0 0.00 0.01 0.00 85 1012.6
20260502122833 53 51 2.0 5.0 0.00 0.01 0.00 86 1012.7
20260502122327 53 24 1.0 5.0 0.00 0.01 0.00 88 1012.7
20260502121822 53 322 1.0 4.0 0.00 0.01 0.00 88 1012.8
20260502121539 52 322 1.0 3.0 0.00 0.01 0.00 88 1012.8
20260502120810 52 257 1.0 2.0 0.00 0.01 0.00 88 1012.9
20260502120521 52 257 0.0 2.0 0.00 0.01 0.00 89 1013.0
20260502120402 52 258 0.0 2.0 0.00 0.01 0.00 88 1013.1
20260502115305 52 257 0.0 2.0 0.00 0.01 0.00 88 1012.9
20260502114802 52 258 0.0 2.0 0.00 0.01 0.00 89 1013.0
20260502114301 52 257 0.0 1.0 0.00 0.01 0.00 89 1012.9
20260502113801 52 257 0.0 0.0 0.00 0.01 0.00 89 1013.0
20260502113302 51 257 0.0 0.0 0.00 0.01 0.00 88 1013.0
20260502112801 51 258 0.0 1.0 0.00 0.01 0.00 88 1013.1
20260502112524 51 258 0.0 1.0 0.00 0.01 0.00 88 1013.2
20260502111801 51 257 0.0 1.0 0.00 0.01 0.00 88 1013.3
20260502111302 51 257 0.0 1.0 0.00 0.01 0.00 88 1013.2
20260502110801 51 259 0.0 1.0 0.00 0.01 0.00 88 1013.0
20260502110301 51 259 0.0 1.0 0.00 0.01 0.00 88 1012.9
20260502110025 51 257 0.0 1.0 0.00 0.01 0.00 88 1012.9
20260502105258 51 257 0.0 1.0 0.00 0.01 0.00 88 1012.9
20260502104759 51 258 0.0 1.0 0.00 0.01 0.00 88 1012.9
20260502104257 51 257 0.0 1.0 0.00 0.01 0.00 88 1012.9
20260502103757 51 257 0.0 1.0 0.00 0.01 0.00 88 1012.8
20260502103257 51 258 0.0 0.0 0.00 0.01 0.00 88 1012.7
20260502102758 51 258 0.0 1.0 0.00 0.01 0.00 88 1012.6
20260502102258 51 257 0.0 1.0 0.00 0.01 0.00 88 1012.6
20260502101758 51 258 0.0 1.0 0.00 0.01 0.00 88 1012.7
20260502101258 51 257 0.0 0.0 0.00 0.01 0.00 88 1012.7
20260502100758 51 258 0.0 2.0 0.00 0.01 0.00 88 1012.6
20260502100258 51 257 0.0 2.0 0.00 0.01 0.00 88 1012.4
20260502091453 50 292 1.0 3.0 0.00 0.01 0.00 88 1012.2
20260502090944 50 214 0.0 0.0 0.00 0.01 0.00 88 1012.3
20260502090222 50 214 0.0 0.0 0.00 0.01 0.00 88 1012.3
20260502080110 50 212 0.0 0.0 0.00 0.01 0.00 87 1012.1
20260502071516 51 213 0.0 0.0 0.00 0.01 0.00 87 1011.9
20260502071011 51 213 0.0 0.0 0.00 0.01 0.00 87 1011.9
20260502070505 51 213 0.0 0.0 0.00 0.01 0.00 87 1011.9
20260502065958 51 212 0.0 0.0 0.00 0.01 0.00 86 1011.8
20260502065451 51 212 0.0 0.0 0.00 0.01 0.00 86 1011.9
20260502064947 51 213 0.0 0.0 0.00 0.01 0.00 86 1011.9
20260502064441 51 212 0.0 0.0 0.00 0.01 0.00 86 1011.9
20260502063934 51 213 0.0 0.0 0.00 0.01 0.00 86 1011.9
20260502063429 51 213 0.0 0.0 0.00 0.01 0.00 86 1012.0
20260502063408 51 212 0.0 0.0 0.00 0.01 0.00 86 1012.2
20260502062430 51 212 0.0 0.0 0.00 0.01 0.00 85 1012.3
20260502061404 51 213 0.0 0.0 0.00 0.01 0.00 85 1012.4
20260502060858 51 212 0.0 0.0 0.00 0.01 0.00 85 1012.6
20260502060616 51 212 0.0 0.0 0.00 0.01 0.00 85 1012.5
20260502055847 51 212 0.0 0.0 0.00 0.01 0.00 85 1012.6
20260502055559 51 213 0.0 0.0 0.00 0.01 0.00 85 1012.8
20260502054835 51 213 0.0 0.0 0.00 0.01 0.00 84 1012.8
20260502054329 52 212 0.0 0.0 0.00 0.01 0.00 84 1012.8
20260502054047 52 212 0.0 0.0 0.00 0.01 0.00 84 1012.8
20260502053537 52 211 0.0 0.0 0.00 0.01 0.00 84 1012.9
20260502052810 52 212 0.0 0.0 0.00 0.01 0.00 83 1012.9
20260502052306 52 212 0.0 0.0 0.00 0.01 0.00 83 1013.0
20260502051758 52 212 0.0 0.0 0.00 0.01 0.00 83 1013.0
20260502051252 52 212 0.0 0.0 0.00 0.01 0.00 83 1013.1
20260502050745 52 212 0.0 0.0 0.00 0.01 0.00 83 1013.0
20260502050507 52 212 0.0 0.0 0.00 0.01 0.00 83 1013.2
20260502045733 53 212 0.0 0.0 0.00 0.01 0.00 82 1013.2
20260502045233 53 213 0.0 0.0 0.00 0.01 0.00 82 1013.2
20260502044733 53 212 0.0 0.0 0.00 0.01 0.00 82 1013.2
20260502044232 53 213 0.0 0.0 0.00 0.01 0.00 82 1013.2
20260502043955 53 213 0.0 0.0 0.00 0.01 0.00 82 1013.2
20260502043235 53 213 0.0 0.0 0.00 0.01 0.00 82 1013.4
20260502043001 53 213 0.0 0.0 0.00 0.01 0.00 82 1013.4
20260502042233 53 212 0.0 2.0 0.00 0.01 0.00 81 1013.3
20260502041958 53 212 0.0 2.0 0.00 0.01 0.00 81 1013.3
20260502041233 53 213 1.0 3.0 0.00 0.01 0.00 81 1013.4
20260502040734 53 211 1.0 4.0 0.00 0.01 0.00 81 1013.4
20260502040233 53 213 1.0 4.0 0.00 0.01 0.00 81 1013.6
20260502035731 54 226 1.0 3.0 0.00 0.01 0.01 80 1013.6
20260502035232 54 227 0.0 3.0 0.00 0.01 0.01 80 1013.6
20260502034723 54 219 0.0 2.0 0.00 0.01 0.01 80 1013.6
20260502034217 54 219 1.0 4.0 0.00 0.01 0.01 80 1013.6
20260502033713 54 219 1.0 4.0 0.00 0.01 0.01 80 1013.6
20260502033206 54 206 1.0 3.0 0.00 0.01 0.01 80 1013.5
20260502032702 54 206 1.0 3.0 0.00 0.01 0.01 80 1013.4
20260502032155 54 210 1.0 3.0 0.00 0.01 0.01 79 1013.4
20260502031648 54 210 1.0 3.0 0.00 0.01 0.01 79 1013.4
20260502031155 54 201 1.0 4.0 0.00 0.01 0.01 79 1013.4
20260502030637 54 202 1.0 4.0 0.00 0.01 0.01 79 1013.2
20260502030130 54 146 0.0 1.0 0.00 0.01 0.01 79 1013.2
20260502025624 55 146 0.0 2.0 0.00 0.01 0.01 78 1013.2
20260502025119 55 146 1.0 3.0 0.00 0.01 0.01 78 1013.2
20260502024613 55 145 1.0 3.0 0.00 0.01 0.01 78 1013.3
20260502024332 55 113 1.0 2.0 0.00 0.01 0.01 78 1013.5
20260502023601 55 110 1.0 2.0 0.00 0.01 0.01 77 1013.7
20260502023055 55 110 1.0 4.0 0.00 0.01 0.01 77 1013.8
20260502022550 55 109 1.0 4.0 0.00 0.01 0.01 77 1013.9
20260502022306 55 135 0.0 3.0 0.00 0.01 0.01 76 1013.9
20260502021536 56 177 0.0 2.0 0.00 0.01 0.01 76 1014.0
20260502021031 56 177 0.0 2.0 0.00 0.01 0.01 76 1014.0
20260502020525 56 177 0.0 2.0 0.00 0.01 0.01 75 1014.0
20260502020019 56 177 1.0 3.0 0.00 0.01 0.01 75 1013.8
20260502015732 56 186 1.0 4.0 0.00 0.01 0.01 75 1013.7
20260502015225 56 170 1.0 5.0 0.00 0.01 0.01 75 1013.5
20260502014500 57 271 2.0 7.0 0.00 0.01 0.01 75 1013.4
20260502013954 57 168 2.0 10.0 0.00 0.01 0.01 74 1013.4
20260502013449 57 290 2.0 10.0 0.00 0.01 0.01 74 1013.3
20260502013208 57 201 2.0 7.0 0.00 0.01 0.01 74 1013.3
20260502012437 57 247 2.0 7.0 0.00 0.01 0.01 74 1013.2
20260502011930 57 151 2.0 6.0 0.00 0.01 0.01 74 1013.2
20260502011424 57 138 2.0 6.0 0.00 0.01 0.01 74 1013.2
20260502010919 57 334 1.0 5.0 0.00 0.01 0.01 74 1013.2
20260502010632 57 165 1.0 5.0 0.00 0.01 0.01 73 1013.0
20260502005907 57 200 1.0 3.0 0.00 0.01 0.01 73 1013.1
20260502005401 57 201 1.0 3.0 0.00 0.01 0.01 73 1012.9
20260502004855 57 201 1.0 4.0 0.00 0.01 0.01 72 1012.8
20260502004349 58 281 1.0 4.0 0.00 0.01 0.01 72 1012.9
20260502003845 58 166 1.0 2.0 0.00 0.01 0.01 71 1012.8
20260502003345 58 166 1.0 2.0 0.00 0.01 0.01 71 1012.7
20260502002845 58 165 0.0 2.0 0.00 0.01 0.01 70 1012.7
20260502002342 59 165 1.0 2.0 0.00 0.01 0.01 70 1012.7
20260502002107 59 165 1.0 3.0 0.00 0.01 0.01 69 1012.7
20260502001343 59 125 1.0 5.0 0.00 0.01 0.01 69 1012.6